Date String (YYYY-MM-DD hh:mm:ss) UTC,Instrument flags,absolute air pressure of the measurement (hPa),sample flow rate (lpm),inlet stack bypass flow (lpm),air temperature of the measurement (°C),ambient temperature measured by the external sensor (°C),aerosol sample conditioner tube jacket temperature (°C),OPC LED temperature (°C),internal box temperature (°C),relative humidity of the measurement (%),span deviation,mass concentration of particles derived from Lorenz-Mie calculation of OPC scattering (μg/m³),mass concentration of particles derived from Lorenz-Mie calculation of OPC scattering (μg/m³),mass concentration of particles derived from Lorenz-Mie calculation of OPC scattering (μg/m³)
DateTimeUTC,F1_M11,P_M11,Q1_M11,Q2_M11,T1_M11,T2_M11,T3_M11,T4_M11,T5_M11,U1_M11,ZSPAN_M11,X0_M11,X2_M11,X1_M11
2023-09-08 03:00:00,SystemResetWarning,0833.9,5.00,000.00,027.9,026.0,000.0,036.2,029.5,16.1,0000.0,0013.73,0003.42,0001.63
2023-09-08 03:01:00,SystemResetWarning,0833.9,5.01,000.00,027.9,026.3,000.0,036.2,029.5,16.1,0000.0,0013.86,0003.42,0001.63
2023-09-08 03:02:00,SystemResetWarning,0833.9,5.00,000.00,027.9,026.5,000.0,036.2,029.6,16.0,0000.0,0014.37,0003.39,0001.63
2023-09-08 03:03:00,SystemResetWarning,0833.9,4.99,000.00,028.0,026.7,000.0,036.3,029.7,15.7,0000.0,0015.08,0003.37,0001.64
2023-09-08 03:04:00,SystemResetWarning,0833.9,4.99,000.00,028.0,026.9,000.0,036.3,029.8,15.5,0000.0,0015.31,0003.38,0001.62
2023-09-08 03:05:00,SystemResetWarning,0833.9,5.00,000.00,028.1,026.9,000.0,036.3,029.8,15.3,0000.0,0015.04,0003.41,0001.62
2023-09-08 03:06:00,SystemResetWarning,0833.9,5.00,000.00,028.0,025.5,000.0,036.3,029.4,15.4,0000.0,0015.45,0003.43,0001.63
2023-09-08 03:07:00,SystemResetWarning,0833.9,5.00,000.00,027.9,024.7,000.0,036.2,029.3,15.3,0000.0,0015.14,0003.40,0001.62
2023-09-08 03:08:00,SystemResetWarning,0833.9,5.01,000.00,027.9,024.8,000.0,036.2,029.3,15.5,0000.0,0014.61,0003.43,0001.63
2023-09-08 03:09:00,SystemResetWarning,0833.9,5.00,000.00,027.8,025.1,000.0,036.2,029.2,15.4,0000.0,0014.17,0003.43,0001.64
2023-09-08 03:10:00,SystemResetWarning,0833.9,5.00,000.00,027.8,025.4,000.0,036.2,029.3,15.4,0000.0,0014.11,0003.42,0001.62
2023-09-08 03:11:00,SystemResetWarning,0833.9,5.00,000.00,027.8,025.8,000.0,036.2,029.4,15.6,0000.0,0013.20,0003.35,0001.59
2023-09-08 03:12:00,SystemResetWarning,0833.9,5.00,000.00,027.9,026.1,000.0,036.2,029.5,15.7,0000.0,0012.91,0003.29,0001.59
2023-09-08 03:13:00,SystemResetWarning,0834.0,5.01,000.00,027.9,026.4,000.0,036.2,029.6,15.5,0000.0,0013.53,0003.24,0001.58
2023-09-08 03:14:00,SystemResetWarning,0834.0,5.00,000.00,028.0,026.6,000.0,036.2,029.6,15.6,0000.0,0013.77,0003.26,0001.57
2023-09-08 03:15:00,SystemResetWarning,0834.0,5.00,000.00,028.0,026.8,000.0,036.3,029.7,15.6,0000.0,0013.75,0003.29,0001.58
2023-09-08 03:16:00,SystemResetWarning,0834.0,5.00,000.00,028.1,027.0,000.0,036.3,029.8,15.7,0000.0,0013.59,0003.29,0001.59
2023-09-08 03:17:00,SystemResetWarning,0834.1,5.00,000.00,028.1,026.7,000.0,036.3,029.7,15.6,0000.0,0013.03,0003.33,0001.60
2023-09-08 03:18:00,SystemResetWarning,0834.1,4.98,000.00,028.0,024.9,000.0,036.3,029.2,15.5,0000.0,0012.84,0003.30,0001.60
2023-09-08 03:19:00,SystemResetWarning,0834.0,5.00,000.00,027.8,023.6,000.0,036.2,028.9,15.5,0000.0,0012.34,0003.27,0001.60
2023-09-08 03:20:00,SystemResetWarning,0834.1,5.01,000.00,027.8,023.8,000.0,036.1,028.9,15.6,0000.0,0011.65,0003.27,0001.59
2023-09-08 03:21:00,SystemResetWarning,0834.0,5.01,000.00,027.7,024.1,000.0,036.1,028.9,15.7,0000.0,0011.77,0003.28,0001.60
2023-09-08 03:22:00,SystemResetWarning,0834.1,5.00,000.00,027.6,024.6,000.0,036.1,029.0,15.8,0000.0,0012.08,0003.31,0001.61
2023-09-08 03:23:00,SystemResetWarning,0834.1,5.00,000.00,027.6,025.0,000.0,036.1,029.1,15.7,0000.0,0011.92,0003.31,0001.61
2023-09-08 03:24:00,SystemResetWarning,0834.1,5.00,000.00,027.7,025.4,000.0,036.1,029.2,15.6,0000.0,0011.48,0003.39,0001.62
2023-09-08 03:25:00,SystemResetWarning,0834.1,5.00,000.00,027.7,025.8,000.0,036.1,029.3,15.6,0000.0,0011.26,0003.34,0001.62
2023-09-08 03:26:00,SystemResetWarning,0834.2,5.00,000.00,027.7,026.1,000.0,036.1,029.4,15.7,0000.0,0010.87,0003.35,0001.63
2023-09-08 03:27:00,SystemResetWarning,0834.1,5.00,000.00,027.8,026.3,000.0,036.1,029.5,15.7,0000.0,0011.32,0003.34,0001.62
2023-09-08 03:28:00,SystemResetWarning,0834.1,5.00,000.00,027.8,026.5,000.0,036.1,029.5,15.6,0000.0,0011.47,0003.30,0001.63
2023-09-08 03:29:00,SystemResetWarning,0834.2,5.00,000.00,027.9,026.7,000.0,036.2,029.6,15.6,0000.0,0011.74,0003.35,0001.64
2023-09-08 03:30:00,SystemResetWarning,0834.2,5.00,000.00,027.9,026.9,000.0,036.2,029.7,15.5,0000.0,0012.47,0003.41,0001.62
2023-09-08 03:31:00,SystemResetWarning,0834.2,5.00,000.00,028.0,027.0,000.0,036.2,029.7,15.4,0000.0,0013.21,0003.45,0001.61
2023-09-08 03:32:00,SystemResetWarning,0834.2,4.99,000.00,028.0,027.1,000.0,036.3,029.8,15.4,0000.0,0014.04,0003.45,0001.61
2023-09-08 03:33:00,SystemResetWarning,0834.2,4.99,000.00,028.1,026.8,000.0,036.3,029.7,15.4,0000.0,0014.35,0003.46,0001.61
2023-09-08 03:34:00,SystemResetWarning,0834.1,5.00,000.00,028.0,025.1,000.0,036.2,029.3,15.4,0000.0,0014.60,0003.49,0001.61
2023-09-08 03:35:00,SystemResetWarning,0834.2,5.00,000.00,027.9,024.6,000.0,036.2,029.2,15.4,0000.0,0014.34,0003.46,0001.61
2023-09-08 03:36:00,SystemResetWarning,0834.2,5.00,000.00,027.8,024.7,000.0,036.1,029.2,15.5,0000.0,0013.29,0003.47,0001.61
2023-09-08 03:37:00,SystemResetWarning,0834.3,5.02,000.00,027.8,025.1,000.0,036.2,029.2,15.7,0000.0,0012.96,0003.46,0001.61
2023-09-08 03:38:00,SystemResetWarning,0834.2,5.00,000.00,027.8,025.4,000.0,036.2,029.3,15.7,0000.0,0012.18,0003.45,0001.60
2023-09-08 03:39:00,SystemResetWarning,0834.2,5.00,000.00,027.8,025.8,000.0,036.2,029.4,15.6,0000.0,0012.09,0003.46,0001.58
2023-09-08 03:40:00,SystemResetWarning,0834.4,5.00,000.00,027.8,026.1,000.0,036.2,029.5,15.3,0000.0,0012.46,0003.45,0001.56
2023-09-08 03:41:00,SystemResetWarning,0834.5,5.00,000.00,027.9,026.3,000.0,036.2,029.5,14.9,0000.0,0012.19,0003.38,0001.56
2023-09-08 03:42:00,SystemResetWarning,0834.6,5.00,000.00,027.9,026.5,000.0,036.2,029.6,14.7,0000.0,0011.65,0003.32,0001.56
2023-09-08 03:43:00,SystemResetWarning,0834.5,5.00,000.00,028.0,026.7,000.0,036.3,029.7,14.7,0000.0,0010.82,0003.31,0001.56
2023-09-08 03:44:00,SystemResetWarning,0834.3,4.99,000.00,028.0,026.9,000.0,036.3,029.7,15.2,0000.0,0010.57,0003.31,0001.56
2023-09-08 03:45:00,SystemResetWarning,0834.3,4.99,000.00,028.1,027.0,000.0,036.3,029.8,15.3,0000.0,0010.64,0003.25,0001.54
2023-09-08 03:46:00,SystemResetWarning,0834.3,4.99,000.00,028.1,027.2,000.0,036.3,029.8,15.0,0000.0,0010.53,0003.24,0001.53
2023-09-08 03:47:00,SystemResetWarning,0834.3,4.99,000.00,028.2,026.6,000.0,036.3,029.8,15.2,0000.0,0010.99,0003.22,0001.53
2023-09-08 03:48:00,SystemResetWarning,0834.3,5.01,000.00,028.1,025.1,000.0,036.3,029.3,15.2,0000.0,0012.16,0003.20,0001.52
2023-09-08 03:49:00,SystemResetWarning,0834.3,5.01,000.00,028.0,024.7,000.0,036.2,029.3,15.3,0000.0,0012.78,0003.17,0001.52
2023-09-08 03:50:00,SystemResetWarning,0834.4,5.01,000.00,027.9,024.9,000.0,036.2,029.2,15.2,0000.0,0013.09,0003.14,0001.53
2023-09-08 03:51:00,SystemResetWarning,0834.4,5.00,000.00,027.9,025.2,000.0,036.2,029.2,15.2,0000.0,0012.57,0003.15,0001.54
2023-09-08 03:52:00,SystemResetWarning,0834.5,5.00,000.00,027.9,025.6,000.0,036.2,029.4,15.4,0000.0,0012.53,0003.14,0001.55
2023-09-08 03:53:00,SystemResetWarning,0834.6,5.00,000.00,027.9,025.9,000.0,036.2,029.4,15.5,0000.0,0012.56,0003.14,0001.56
2023-09-08 03:54:00,SystemResetWarning,0835.1,5.00,000.00,027.9,026.2,000.0,036.3,029.5,15.5,0000.0,0012.83,0003.08,0001.56
2023-09-08 03:55:00,SystemResetWarning,0835.0,5.00,000.00,028.0,026.4,000.0,036.3,029.6,15.4,0000.0,0012.80,0003.09,0001.57
2023-09-08 03:56:00,SystemResetWarning,0835.0,5.00,000.00,028.0,026.7,000.0,036.3,029.7,15.3,0000.0,0012.39,0003.08,0001.58
2023-09-08 03:57:00,SystemResetWarning,0835.1,5.00,000.00,028.0,026.9,000.0,036.3,029.8,15.4,0000.0,0013.01,0003.14,0001.58
2023-09-08 03:58:00,SystemResetWarning,0835.1,5.00,000.00,028.1,027.0,000.0,036.4,029.8,15.4,0000.0,0013.44,0003.16,0001.57
2023-09-08 03:59:00,SystemResetWarning,0835.1,4.99,000.00,028.1,027.1,000.0,036.4,029.9,15.4,0000.0,0012.94,0003.16,0001.58
